Flag for Indonesia Weather past 2 weeks in Medan, North Sumatra, Indonesia

Now
81 °F

Passing clouds.


Feels Like: 87 °F
Forecast: 76 / 87 °F
Wind: 5 mph from Southeast

Location: Medan / Polonia

Current Time: Aug 30, 2014 at 12:05:01 AM

Latest Report: Aug 29, 2014 at 11:00 PM


Visibility: 2 mi

Pressure: 29.86 "Hg

Humidity: 89%

Dew point: 77 °F

Location of MedanLocation

Historic Weather in Medan — Graph

°F

Medan temperature yesterday

Maximum temperature yesterday: 84 °F (at 2:00 PM)
Minimum temperature yesterday: 75 °F (at 7:00 AM)
Average temperature yesterday: 80 °F

Past Weeks' High & Low Weather Summary

 TemperatureHumidityPressure
High88 °F (Aug 17, 12:00 PM)100% (Aug 15, 6:00 AM)29.92 "Hg (Aug 15, 6:00 AM)
Low72 °F (Aug 25, 9:00 PM)59% (Aug 20, 11:00 AM)29.68 "Hg (Aug 22, 4:30 PM)
Average80 °F86%29.81 "Hg
* Reported Aug 14 10:00 PM — Aug 29 10:30 PM, Medan, Weather by CustomWeather, © 2014

Note: Actual official high and low records may vary slightly from our data, if they occured in-between our weather recording intervals... More about our weather records

Advertising

Medan weather history for previous 24 hours

 ConditionsComfort  
Time TempWeatherWind HumidityBarometerVisibility
10:30 PM
Aug 29
81 °FPassing clouds.6 mph89%29.83 "Hg2 mi
10:00 PM81 °FPassing clouds.3 mph89%29.83 "Hg3 mi
9:30 PM81 °FPassing clouds.5 mph94%29.83 "Hg2 mi
9:00 PM81 °FPassing clouds.5 mph94%29.83 "Hg3 mi
8:30 PM81 °FLight rain. Passing clouds.5 mph94%29.80 "Hg3 mi
8:00 PM81 °FLight rain. Passing clouds.3 mph89%29.80 "Hg3 mi
7:30 PM81 °FLight rain. Passing clouds.6 mph89%29.80 "Hg4 mi
7:00 PM81 °FLight rain. Passing clouds.6 mph89%29.77 "Hg4 mi
6:30 PM82 °FLight rain. Partly sunny.6 mph84%29.77 "Hg4 mi
6:00 PM82 °FLight rain. Partly sunny.6 mph84%29.77 "Hg4 mi
5:30 PM82 °FLight rain. Partly sunny.5 mph84%29.74 "Hg4 mi
5:00 PM82 °FPartly sunny.No wind84%29.74 "Hg4 mi
4:30 PM82 °FPartly sunny.5 mph79%29.74 "Hg4 mi
4:00 PM82 °FPartly sunny.6 mph79%29.74 "Hg4 mi
3:30 PM84 °FScattered clouds.8 mph74%29.74 "Hg4 mi
3:00 PM82 °FScattered clouds.5 mph74%29.74 "Hg4 mi
2:30 PM82 °FScattered clouds.6 mph74%29.77 "Hg4 mi
2:00 PM84 °FWarm.6 mph70%29.77 "HgN/A
1:30 PM82 °FScattered clouds.9 mph70%29.77 "Hg4 mi
12:30 PM82 °FScattered clouds.8 mph70%29.80 "Hg4 mi
12:00 PM82 °FScattered clouds.12 mph66%29.83 "Hg4 mi
11:30 AM82 °FScattered clouds.13 mph66%29.83 "Hg4 mi
11:00 AM82 °FScattered clouds.8 mph66%29.83 "Hg4 mi
10:30 AM81 °FScattered clouds.7 mph66%29.83 "Hg4 mi
10:00 AM81 °FScattered clouds.12 mph66%29.83 "Hg4 mi
9:30 AM81 °FScattered clouds.8 mph66%29.83 "Hg4 mi
9:00 AM77 °FScattered clouds.6 mph79%29.83 "Hg4 mi
8:00 AM75 °FLight rain. Partly sunny.8 mph78%29.80 "Hg4 mi
7:30 AM75 °FLight rain. Partly sunny.7 mph78%29.80 "Hg4 mi
7:00 AM75 °FScattered clouds.3 mph83%29.80 "Hg4 mi
6:30 AM77 °FPartly sunny.8 mph83%29.80 "Hg4 mi
6:00 AM77 °FHaze.6 mph89%29.80 "Hg3 mi
5:30 AM77 °FLight rain. Passing clouds.10 mph94%29.80 "Hg3 mi
5:00 AM77 °FHaze.7 mph94%29.80 "Hg3 mi
4:00 AM79 °FHaze.23 mph94%29.80 "Hg3 mi
3:00 AM77 °FPassing clouds.3 mph100%29.80 "Hg3 mi
2:30 AM79 °FPassing clouds.3 mph94%29.80 "Hg3 mi
2:00 AM79 °FPassing clouds.5 mph94%29.80 "Hg3 mi
1:30 AM79 °FPassing clouds.5 mph94%29.80 "Hg3 mi
1:00 AM79 °FPassing clouds.5 mph94%29.83 "Hg3 mi
12:30 AM79 °FPassing clouds.No wind94%29.83 "Hg3 mi
12:00 AM81 °FPassing clouds.5 mph89%29.83 "Hg3 mi
Weather by CustomWeather, © 2014

See weather overviewHow to use our weather pages